contact:dominique.lefevre@mio.osupytheas.fr, maurice.libes@osupytheas.fr, didier.mallarino@osupytheas.fr
Project:EMSO http://www.emso-fr.org/EMSO-France
Depth: 2436.0 m
Title:EMSO Ligure Ouest : Data MII capteur CSTAR
DateTime,Latitude,Longitude,Instrument_Serial,Reference_Counts,Signal_Counts,Corrected_Signal_raw_counts,Calculated_Beam_c_inverse_meters,Internal_thermistor_counts
DateTime,Latitude,Longitude,Instrument_Serial,Reference_Counts,Signal_Counts,Corrected_Signal_raw_counts,Calculated_Beam_c_inverse_meters,Internal_thermistor_counts
2021-06-14T00:00:14,42.805,6.029,CST-1368DR,5487,7652,14973,0.168,551
2021-06-14T00:03:15,42.805,6.029,CST-1368DR,5487,7652,14973,0.168,551
2021-06-14T00:06:17,42.805,6.029,CST-1368DR,5486,7650,14972,0.168,551
2021-06-14T00:09:18,42.805,6.029,CST-1368DR,5487,7651,14972,0.168,551
2021-06-14T00:12:20,42.805,6.029,CST-1368DR,5486,7652,14977,0.167,551
2021-06-14T00:15:22,42.805,6.029,CST-1368DR,5486,7652,14976,0.167,551
2021-06-14T00:18:23,42.805,6.029,CST-1368DR,5486,7652,14976,0.167,551
2021-06-14T00:21:25,42.805,6.029,CST-1368DR,5487,7652,14973,0.168,551
2021-06-14T00:24:26,42.805,6.029,CST-1368DR,5487,7652,14973,0.168,551
2021-06-14T00:27:28,42.805,6.029,CST-1368DR,5487,7652,14974,0.168,551
2021-06-14T00:30:30,42.805,6.029,CST-1368DR,5487,7653,14976,0.167,551
2021-06-14T00:33:31,42.805,6.029,CST-1368DR,5486,7652,14976,0.167,551
2021-06-14T00:36:33,42.805,6.029,CST-1368DR,5486,7652,14975,0.168,551
2021-06-14T00:39:34,42.805,6.029,CST-1368DR,5486,7652,14976,0.167,551
2021-06-14T00:42:36,42.805,6.029,CST-1368DR,5486,7651,14975,0.168,551
2021-06-14T00:45:37,42.805,6.029,CST-1368DR,5486,7651,14974,0.168,551
2021-06-14T00:48:39,42.805,6.029,CST-1368DR,5486,7652,14975,0.168,551
2021-06-14T00:51:41,42.805,6.029,CST-1368DR,5486,7651,14974,0.168,551
2021-06-14T00:54:42,42.805,6.029,CST-1368DR,5486,7651,14974,0.168,551
2021-06-14T00:57:44,42.805,6.029,CST-1368DR,5486,7651,14974,0.168,551
2021-06-14T01:00:45,42.805,6.029,CST-1368DR,5486,7651,14975,0.168,551
2021-06-14T01:03:47,42.805,6.029,CST-1368DR,5486,7651,14974,0.168,551
2021-06-14T01:06:49,42.805,6.029,CST-1368DR,5486,7653,14978,0.167,551
2021-06-14T01:09:50,42.805,6.029,CST-1368DR,5486,7652,14975,0.168,551
2021-06-14T01:12:52,42.805,6.029,CST-1368DR,5486,7651,14975,0.168,551
2021-06-14T01:15:53,42.805,6.029,CST-1368DR,5486,7652,14976,0.167,551
2021-06-14T01:18:55,42.805,6.029,CST-1368DR,5486,7653,14977,0.167,551
2021-06-14T01:21:56,42.805,6.029,CST-1368DR,5486,7652,14976,0.167,550
2021-06-14T01:24:58,42.805,6.029,CST-1368DR,5486,7652,14975,0.168,550
2021-06-14T01:28:00,42.805,6.029,CST-1368DR,5486,7652,14976,0.167,551
2021-06-14T01:31:01,42.805,6.029,CST-1368DR,5486,7652,14976,0.167,551
2021-06-14T01:34:03,42.805,6.029,CST-1368DR,5486,7651,14974,0.168,551
2021-06-14T01:37:04,42.805,6.029,CST-1368DR,5486,7652,14976,0.167,551
2021-06-14T01:40:06,42.805,6.029,CST-1368DR,5486,7651,14974,0.168,551
2021-06-14T01:43:07,42.805,6.029,CST-1368DR,5486,7648,14969,0.169,551
2021-06-14T01:46:09,42.805,6.029,CST-1368DR,5486,7651,14974,0.168,551
2021-06-14T01:49:11,42.805,6.029,CST-1368DR,5486,7652,14976,0.167,551
2021-06-14T01:52:12,42.805,6.029,CST-1368DR,5486,7652,14976,0.167,551
2021-06-14T01:55:14,42.805,6.029,CST-1368DR,5486,7652,14975,0.168,551
2021-06-14T01:58:15,42.805,6.029,CST-1368DR,5486,7652,14977,0.167,551
2021-06-14T02:01:17,42.805,6.029,CST-1368DR,5486,7652,14975,0.168,551
2021-06-14T02:04:19,42.805,6.029,CST-1368DR,5486,7649,14970,0.169,551
2021-06-14T02:07:20,42.805,6.029,CST-1368DR,5486,7649,14971,0.169,551
2021-06-14T02:10:22,42.805,6.029,CST-1368DR,5486,7652,14976,0.167,551
2021-06-14T02:13:23,42.805,6.029,CST-1368DR,5486,7652,14975,0.168,551
2021-06-14T02:16:25,42.805,6.029,CST-1368DR,5486,7652,14976,0.167,551
2021-06-14T02:19:26,42.805,6.029,CST-1368DR,5486,7652,14976,0.167,551
2021-06-14T02:22:28,42.805,6.029,CST-1368DR,5486,7652,14976,0.167,551
2021-06-14T02:25:30,42.805,6.029,CST-1368DR,5486,7651,14974,0.168,551
2021-06-14T02:28:31,42.805,6.029,CST-1368DR,5486,7651,14974,0.168,551
2021-06-14T02:31:33,42.805,6.029,CST-1368DR,5486,7651,14975,0.168,551
2021-06-14T02:34:34,42.805,6.029,CST-1368DR,5486,7652,14975,0.168,551
2021-06-14T02:37:36,42.805,6.029,CST-1368DR,5486,7650,14972,0.168,551
2021-06-14T02:40:38,42.805,6.029,CST-1368DR,5486,7652,14976,0.167,551
2021-06-14T02:43:39,42.805,6.029,CST-1368DR,5486,7651,14974,0.168,551
2021-06-14T02:46:41,42.805,6.029,CST-1368DR,5486,7651,14974,0.168,551
2021-06-14T02:49:42,42.805,6.029,CST-1368DR,5486,7652,14975,0.168,551
2021-06-14T02:52:44,42.805,6.029,CST-1368DR,5486,7650,14973,0.168,551
2021-06-14T02:55:45,42.805,6.029,CST-1368DR,5486,7652,14975,0.168,551
2021-06-14T02:58:47,42.805,6.029,CST-1368DR,5486,7650,14972,0.168,551
2021-06-14T03:01:49,42.805,6.029,CST-1368DR,5486,7650,14972,0.168,551
2021-06-14T03:04:50,42.805,6.029,CST-1368DR,5486,7651,14975,0.168,551
2021-06-14T03:07:52,42.805,6.029,CST-1368DR,5486,7650,14972,0.168,551
2021-06-14T03:10:53,42.805,6.029,CST-1368DR,5486,7650,14972,0.168,551
2021-06-14T03:13:55,42.805,6.029,CST-1368DR,5486,7651,14974,0.168,551
2021-06-14T03:16:56,42.805,6.029,CST-1368DR,5486,7651,14975,0.168,551
2021-06-14T03:19:58,42.805,6.029,CST-1368DR,5486,7649,14970,0.169,551
2021-06-14T03:23:00,42.805,6.029,CST-1368DR,5486,7651,14975,0.168,551
2021-06-14T03:26:01,42.805,6.029,CST-1368DR,5486,7649,14970,0.169,551
2021-06-14T03:29:03,42.805,6.029,CST-1368DR,5486,7651,14975,0.168,550
2021-06-14T03:32:04,42.805,6.029,CST-1368DR,5486,7650,14973,0.168,551
2021-06-14T03:35:06,42.805,6.029,CST-1368DR,5486,7650,14972,0.168,551
2021-06-14T03:38:08,42.805,6.029,CST-1368DR,5486,7651,14974,0.168,551
2021-06-14T03:41:09,42.805,6.029,CST-1368DR,5486,7651,14974,0.168,551
2021-06-14T03:44:11,42.805,6.029,CST-1368DR,5486,7650,14973,0.168,551
2021-06-14T03:47:12,42.805,6.029,CST-1368DR,5486,7650,14972,0.168,551
2021-06-14T03:50:14,42.805,6.029,CST-1368DR,5486,7651,14974,0.168,551
2021-06-14T03:53:15,42.805,6.029,CST-1368DR,5486,7651,14974,0.168,551
2021-06-14T03:56:17,42.805,6.029,CST-1368DR,5486,7650,14971,0.169,551
2021-06-14T03:59:19,42.805,6.029,CST-1368DR,5486,7652,14975,0.168,551
2021-06-14T04:02:20,42.805,6.029,CST-1368DR,5486,7649,14971,0.169,551
2021-06-14T04:05:22,42.805,6.029,CST-1368DR,5486,7652,14975,0.168,551
2021-06-14T04:08:23,42.805,6.029,CST-1368DR,5486,7652,14975,0.168,551
2021-06-14T04:11:25,42.805,6.029,CST-1368DR,5486,7650,14972,0.168,551
2021-06-14T04:14:27,42.805,6.029,CST-1368DR,5486,7650,14973,0.168,550
2021-06-14T04:17:28,42.805,6.029,CST-1368DR,5486,7644,14961,0.171,551
2021-06-14T04:20:30,42.805,6.029,CST-1368DR,5486,7650,14972,0.168,551
2021-06-14T04:23:31,42.805,6.029,CST-1368DR,5486,7652,14976,0.167,551
2021-06-14T04:26:33,42.805,6.029,CST-1368DR,5486,7651,14974,0.168,550
2021-06-14T04:29:34,42.805,6.029,CST-1368DR,5486,7651,14974,0.168,551
2021-06-14T04:32:36,42.805,6.029,CST-1368DR,5486,7651,14974,0.168,551
2021-06-14T04:35:38,42.805,6.029,CST-1368DR,5486,7649,14971,0.169,551
2021-06-14T04:38:39,42.805,6.029,CST-1368DR,5486,7651,14974,0.168,551
2021-06-14T04:41:41,42.805,6.029,CST-1368DR,5486,7651,14974,0.168,551
2021-06-14T04:44:42,42.805,6.029,CST-1368DR,5486,7650,14973,0.168,551
2021-06-14T04:47:44,42.805,6.029,CST-1368DR,5486,7652,14975,0.168,551
2021-06-14T04:50:45,42.805,6.029,CST-1368DR,5486,7650,14972,0.168,551
2021-06-14T04:53:47,42.805,6.029,CST-1368DR,5486,7650,14972,0.168,551
2021-06-14T04:56:49,42.805,6.029,CST-1368DR,5486,7650,14972,0.168,551
2021-06-14T04:59:50,42.805,6.029,CST-1368DR,5486,7651,14975,0.168,551
2021-06-14T05:02:52,42.805,6.029,CST-1368DR,5486,7651,14975,0.168,551
2021-06-14T05:05:53,42.805,6.029,CST-1368DR,5486,7651,14974,0.168,551
2021-06-14T05:08:55,42.805,6.029,CST-1368DR,5486,7651,14974,0.168,551
2021-06-14T05:11:57,42.805,6.029,CST-1368DR,5486,7650,14973,0.168,551
2021-06-14T05:14:58,42.805,6.029,CST-1368DR,5486,7652,14975,0.168,551
2021-06-14T05:18:00,42.805,6.029,CST-1368DR,5486,7651,14974,0.168,551
2021-06-14T05:21:01,42.805,6.029,CST-1368DR,5486,7650,14972,0.168,551
2021-06-14T05:24:03,42.805,6.029,CST-1368DR,5486,7651,14974,0.168,551
2021-06-14T05:27:04,42.805,6.029,CST-1368DR,5486,7651,14974,0.168,551
2021-06-14T05:30:06,42.805,6.029,CST-1368DR,5486,7651,14974,0.168,550
2021-06-14T05:33:08,42.805,6.029,CST-1368DR,5486,7651,14975,0.168,551
2021-06-14T05:36:09,42.805,6.029,CST-1368DR,5486,7650,14973,0.168,551
2021-06-14T05:39:11,42.805,6.029,CST-1368DR,5486,7650,14973,0.168,551
2021-06-14T05:42:12,42.805,6.029,CST-1368DR,5486,7651,14974,0.168,551
2021-06-14T05:45:14,42.805,6.029,CST-1368DR,5486,7651,14974,0.168,551
2021-06-14T05:48:15,42.805,6.029,CST-1368DR,5486,7651,14974,0.168,551
2021-06-14T05:51:17,42.805,6.029,CST-1368DR,5486,7651,14974,0.168,551
2021-06-14T05:54:19,42.805,6.029,CST-1368DR,5486,7652,14975,0.168,551
2021-06-14T05:57:20,42.805,6.029,CST-1368DR,5486,7651,14974,0.168,551
2021-06-14T06:00:22,42.805,6.029,CST-1368DR,5486,7651,14975,0.168,551
2021-06-14T06:03:23,42.805,6.029,CST-1368DR,5486,7650,14973,0.168,551
2021-06-14T06:06:25,42.805,6.029,CST-1368DR,5486,7651,14974,0.168,551
2021-06-14T06:09:27,42.805,6.029,CST-1368DR,5486,7651,14974,0.168,550
2021-06-14T06:12:28,42.805,6.029,CST-1368DR,5486,7651,14975,0.168,551
2021-06-14T06:15:30,42.805,6.029,CST-1368DR,5486,7649,14971,0.169,551
2021-06-14T06:18:31,42.805,6.029,CST-1368DR,5486,7651,14974,0.168,551
2021-06-14T06:21:33,42.805,6.029,CST-1368DR,5486,7649,14970,0.169,551
2021-06-14T06:24:34,42.805,6.029,CST-1368DR,5486,7649,14971,0.169,551
2021-06-14T06:27:36,42.805,6.029,CST-1368DR,5486,7650,14973,0.168,551
2021-06-14T06:30:38,42.805,6.029,CST-1368DR,5486,7650,14973,0.168,551
2021-06-14T06:33:39,42.805,6.029,CST-1368DR,5486,7650,14973,0.168,551
2021-06-14T06:36:41,42.805,6.029,CST-1368DR,5486,7651,14974,0.168,551
2021-06-14T06:39:42,42.805,6.029,CST-1368DR,5486,7650,14973,0.168,551
2021-06-14T06:42:44,42.805,6.029,CST-1368DR,5486,7649,14971,0.169,551
2021-06-14T06:45:46,42.805,6.029,CST-1368DR,5486,7646,14965,0.170,551
2021-06-14T06:48:47,42.805,6.029,CST-1368DR,5486,7649,14970,0.169,551
2021-06-14T06:51:49,42.805,6.029,CST-1368DR,5486,7650,14972,0.168,551
2021-06-14T06:54:50,42.805,6.029,CST-1368DR,5486,7649,14970,0.169,550
2021-06-14T06:57:52,42.805,6.029,CST-1368DR,5486,7650,14972,0.168,551
2021-06-14T07:00:53,42.805,6.029,CST-1368DR,5486,7651,14974,0.168,551
2021-06-14T07:03:55,42.805,6.029,CST-1368DR,5486,7652,14975,0.168,551
2021-06-14T07:06:57,42.805,6.029,CST-1368DR,5486,7650,14972,0.168,551
2021-06-14T07:09:58,42.805,6.029,CST-1368DR,5486,7651,14974,0.168,551
2021-06-14T07:13:00,42.805,6.029,CST-1368DR,5486,7651,14974,0.168,551
2021-06-14T07:16:01,42.805,6.029,CST-1368DR,5486,7648,14968,0.170,551
2021-06-14T07:19:03,42.805,6.029,CST-1368DR,5486,7650,14973,0.168,551
2021-06-14T07:22:04,42.805,6.029,CST-1368DR,5486,7649,14970,0.169,551
2021-06-14T07:25:06,42.805,6.029,CST-1368DR,5486,7650,14972,0.168,551
2021-06-14T07:28:08,42.805,6.029,CST-1368DR,5486,7650,14972,0.168,551
2021-06-14T07:31:09,42.805,6.029,CST-1368DR,5486,7650,14971,0.169,551
2021-06-14T07:34:11,42.805,6.029,CST-1368DR,5486,7651,14974,0.168,551
2021-06-14T07:37:12,42.805,6.029,CST-1368DR,5486,7651,14974,0.168,550
2021-06-14T07:40:14,42.805,6.029,CST-1368DR,5485,7650,14975,0.168,551
2021-06-14T07:43:16,42.805,6.029,CST-1368DR,5485,7649,14972,0.168,551
2021-06-14T07:46:17,42.805,6.029,CST-1368DR,5486,7650,14972,0.168,551
2021-06-14T07:49:19,42.805,6.029,CST-1368DR,5486,7651,14974,0.168,551
2021-06-14T07:52:20,42.805,6.029,CST-1368DR,5486,7649,14970,0.169,551
2021-06-14T07:55:22,42.805,6.029,CST-1368DR,5486,7650,14972,0.168,551
2021-06-14T07:58:23,42.805,6.029,CST-1368DR,5486,7650,14973,0.168,551
2021-06-14T08:01:25,42.805,6.029,CST-1368DR,5486,7650,14971,0.169,551
2021-06-14T08:04:27,42.805,6.029,CST-1368DR,5486,7648,14967,0.170,551
2021-06-14T08:07:28,42.805,6.029,CST-1368DR,5486,7648,14968,0.170,551
2021-06-14T08:10:30,42.805,6.029,CST-1368DR,5486,7649,14970,0.169,551
2021-06-14T08:13:31,42.805,6.029,CST-1368DR,5486,7648,14968,0.170,551
2021-06-14T08:16:33,42.805,6.029,CST-1368DR,5486,7649,14971,0.169,551
2021-06-14T08:19:35,42.805,6.029,CST-1368DR,5486,7649,14970,0.169,551
2021-06-14T08:22:36,42.805,6.029,CST-1368DR,5485,7648,14972,0.168,551
2021-06-14T08:25:38,42.805,6.029,CST-1368DR,5486,7650,14972,0.168,551
2021-06-14T08:28:39,42.805,6.029,CST-1368DR,5486,7648,14968,0.170,551
2021-06-14T08:31:41,42.805,6.029,CST-1368DR,5486,7649,14970,0.169,551
2021-06-14T08:34:42,42.805,6.029,CST-1368DR,5486,7650,14973,0.168,551
2021-06-14T08:37:44,42.805,6.029,CST-1368DR,5486,7649,14970,0.169,551
2021-06-14T08:40:46,42.805,6.029,CST-1368DR,5486,7649,14969,0.169,551
2021-06-14T08:43:47,42.805,6.029,CST-1368DR,5486,7649,14969,0.169,551
2021-06-14T08:46:49,42.805,6.029,CST-1368DR,5486,7649,14971,0.169,551
2021-06-14T08:49:50,42.805,6.029,CST-1368DR,5486,7650,14972,0.168,551
2021-06-14T08:52:52,42.805,6.029,CST-1368DR,5486,7649,14970,0.169,551
2021-06-14T08:55:53,42.805,6.029,CST-1368DR,5486,7650,14971,0.169,551
2021-06-14T08:58:55,42.805,6.029,CST-1368DR,5485,7649,14973,0.168,551
2021-06-14T09:01:57,42.805,6.029,CST-1368DR,5486,7648,14969,0.169,551
2021-06-14T09:04:58,42.805,6.029,CST-1368DR,5486,7650,14973,0.168,551
2021-06-14T09:08:00,42.805,6.029,CST-1368DR,5485,7650,14974,0.168,551
2021-06-14T09:11:01,42.805,6.029,CST-1368DR,5485,7645,14965,0.170,551
2021-06-14T09:14:03,42.805,6.029,CST-1368DR,5485,7648,14970,0.169,551
2021-06-14T09:17:05,42.805,6.029,CST-1368DR,5485,7650,14974,0.168,551
2021-06-14T09:20:06,42.805,6.029,CST-1368DR,5485,7640,14955,0.173,551
2021-06-14T09:23:08,42.805,6.029,CST-1368DR,5485,7650,14974,0.168,550
2021-06-14T09:26:09,42.805,6.029,CST-1368DR,5485,7650,14974,0.168,551
2021-06-14T09:29:11,42.805,6.029,CST-1368DR,5485,7650,14974,0.168,550
2021-06-14T09:32:12,42.805,6.029,CST-1368DR,5485,7648,14970,0.169,551
2021-06-14T09:35:14,42.805,6.029,CST-1368DR,5485,7650,14974,0.168,551
2021-06-14T09:38:16,42.805,6.029,CST-1368DR,5485,7650,14974,0.168,551
2021-06-14T09:41:17,42.805,6.029,CST-1368DR,5485,7649,14972,0.168,551
2021-06-14T09:44:19,42.805,6.029,CST-1368DR,5485,7650,14974,0.168,551
2021-06-14T09:47:20,42.805,6.029,CST-1368DR,5485,7650,14974,0.168,551
2021-06-14T09:50:22,42.805,6.029,CST-1368DR,5485,7650,14974,0.168,551
2021-06-14T09:53:24,42.805,6.029,CST-1368DR,5485,7650,14975,0.168,551
2021-06-14T09:56:25,42.805,6.029,CST-1368DR,5485,7648,14970,0.169,551
2021-06-14T09:59:27,42.805,6.029,CST-1368DR,5485,7650,14974,0.168,551
2021-06-14T10:02:28,42.805,6.029,CST-1368DR,5485,7650,14975,0.168,551
2021-06-14T10:05:30,42.805,6.029,CST-1368DR,5485,7649,14972,0.168,551
2021-06-14T10:08:31,42.805,6.029,CST-1368DR,5485,7650,14974,0.168,551
2021-06-14T10:11:33,42.805,6.029,CST-1368DR,5485,7650,14975,0.168,551
2021-06-14T10:14:35,42.805,6.029,CST-1368DR,5485,7650,14974,0.168,551
2021-06-14T10:17:36,42.805,6.029,CST-1368DR,5485,7650,14975,0.168,551
2021-06-14T10:20:38,42.805,6.029,CST-1368DR,5485,7651,14976,0.167,551
2021-06-14T10:23:39,42.805,6.029,CST-1368DR,5485,7649,14972,0.168,551
2021-06-14T10:26:41,42.805,6.029,CST-1368DR,5485,7649,14973,0.168,551
2021-06-14T10:29:42,42.805,6.029,CST-1368DR,5485,7649,14972,0.168,551
2021-06-14T10:32:44,42.805,6.029,CST-1368DR,5485,7650,14974,0.168,551
2021-06-14T10:35:46,42.805,6.029,CST-1368DR,5485,7650,14974,0.168,551
2021-06-14T10:38:47,42.805,6.029,CST-1368DR,5485,7650,14974,0.168,551
2021-06-14T10:41:49,42.805,6.029,CST-1368DR,5485,7649,14973,0.168,550
2021-06-14T10:44:50,42.805,6.029,CST-1368DR,5485,7649,14973,0.168,551
2021-06-14T10:47:52,42.805,6.029,CST-1368DR,5485,7650,14974,0.168,551
2021-06-14T10:50:54,42.805,6.029,CST-1368DR,5485,7650,14974,0.168,551
2021-06-14T10:53:55,42.805,6.029,CST-1368DR,5485,7650,14975,0.168,551
2021-06-14T10:56:57,42.805,6.029,CST-1368DR,5485,7650,14974,0.168,551
2021-06-14T10:59:58,42.805,6.029,CST-1368DR,5485,7650,14974,0.168,551
2021-06-14T11:03:00,42.805,6.029,CST-1368DR,5485,7649,14973,0.168,551
2021-06-14T11:06:01,42.805,6.029,CST-1368DR,5485,7650,14974,0.168,551
2021-06-14T11:09:03,42.805,6.029,CST-1368DR,5485,7650,14975,0.168,551
2021-06-14T11:12:05,42.805,6.029,CST-1368DR,5485,7650,14974,0.168,551
2021-06-14T11:15:06,42.805,6.029,CST-1368DR,5485,7650,14975,0.168,551
2021-06-14T11:18:08,42.805,6.029,CST-1368DR,5485,7650,14975,0.168,551
2021-06-14T11:21:09,42.805,6.029,CST-1368DR,5485,7649,14973,0.168,551
2021-06-14T11:24:11,42.805,6.029,CST-1368DR,5485,7649,14973,0.168,551
2021-06-14T11:27:12,42.805,6.029,CST-1368DR,5485,7649,14973,0.168,551
2021-06-14T11:30:14,42.805,6.029,CST-1368DR,5485,7649,14973,0.168,551
2021-06-14T11:33:16,42.805,6.029,CST-1368DR,5485,7649,14973,0.168,551
2021-06-14T11:36:17,42.805,6.029,CST-1368DR,5485,7650,14975,0.168,551
2021-06-14T11:39:19,42.805,6.029,CST-1368DR,5485,7650,14974,0.168,551
2021-06-14T11:42:20,42.805,6.029,CST-1368DR,5485,7649,14972,0.168,551
2021-06-14T11:45:22,42.805,6.029,CST-1368DR,5485,7649,14973,0.168,551
2021-06-14T11:48:24,42.805,6.029,CST-1368DR,5485,7650,14974,0.168,550
2021-06-14T11:51:25,42.805,6.029,CST-1368DR,5485,7649,14973,0.168,551
2021-06-14T11:54:27,42.805,6.029,CST-1368DR,5485,7646,14967,0.170,551
2021-06-14T11:57:28,42.805,6.029,CST-1368DR,5485,7649,14972,0.168,551
2021-06-14T12:00:30,42.805,6.029,CST-1368DR,5485,7650,14974,0.168,551
2021-06-14T12:03:31,42.805,6.029,CST-1368DR,5485,7649,14973,0.168,551
2021-06-14T12:06:33,42.805,6.029,CST-1368DR,5485,7649,14973,0.168,551
2021-06-14T12:09:35,42.805,6.029,CST-1368DR,5485,7648,14972,0.168,551
2021-06-14T12:12:36,42.805,6.029,CST-1368DR,5485,7650,14974,0.168,551
2021-06-14T12:15:38,42.805,6.029,CST-1368DR,5485,7650,14975,0.168,551
2021-06-14T12:18:39,42.805,6.029,CST-1368DR,5485,7649,14973,0.168,551
2021-06-14T12:21:41,42.805,6.029,CST-1368DR,5485,7649,14973,0.168,551
2021-06-14T12:24:43,42.805,6.029,CST-1368DR,5485,7649,14972,0.168,551
2021-06-14T12:27:44,42.805,6.029,CST-1368DR,5485,7649,14973,0.168,551
2021-06-14T12:30:46,42.805,6.029,CST-1368DR,5485,7649,14973,0.168,551
2021-06-14T12:33:47,42.805,6.029,CST-1368DR,5485,7648,14972,0.168,551
2021-06-14T12:36:49,42.805,6.029,CST-1368DR,5485,7650,14974,0.168,551
2021-06-14T12:39:50,42.805,6.029,CST-1368DR,5485,7648,14971,0.169,551
2021-06-14T12:42:52,42.805,6.029,CST-1368DR,5485,7649,14973,0.168,551
2021-06-14T12:45:54,42.805,6.029,CST-1368DR,5485,7647,14968,0.170,551
2021-06-14T12:48:55,42.805,6.029,CST-1368DR,5485,7649,14973,0.168,551
2021-06-14T12:51:57,42.805,6.029,CST-1368DR,5485,7646,14967,0.170,551
2021-06-14T12:54:58,42.805,6.029,CST-1368DR,5485,7649,14973,0.168,551
2021-06-14T12:58:00,42.805,6.029,CST-1368DR,5485,7648,14971,0.169,551
2021-06-14T13:01:01,42.805,6.029,CST-1368DR,5485,7647,14968,0.170,551
2021-06-14T13:04:03,42.805,6.029,CST-1368DR,5485,7643,14961,0.171,551
2021-06-14T13:07:05,42.805,6.029,CST-1368DR,5485,7648,14971,0.169,551
2021-06-14T13:10:06,42.805,6.029,CST-1368DR,5485,7648,14970,0.169,551
2021-06-14T13:13:08,42.805,6.029,CST-1368DR,5485,7648,14972,0.168,551
2021-06-14T13:16:09,42.805,6.029,CST-1368DR,5485,7647,14968,0.170,551
2021-06-14T13:19:11,42.805,6.029,CST-1368DR,5485,7649,14972,0.168,551
2021-06-14T13:22:13,42.805,6.029,CST-1368DR,5485,7648,14971,0.169,551
2021-06-14T13:25:14,42.805,6.029,CST-1368DR,5485,7649,14973,0.168,551
2021-06-14T13:28:16,42.805,6.029,CST-1368DR,5485,7648,14970,0.169,551
2021-06-14T13:31:17,42.805,6.029,CST-1368DR,5485,7648,14971,0.169,551
2021-06-14T13:34:19,42.805,6.029,CST-1368DR,5485,7649,14972,0.168,551
2021-06-14T13:37:20,42.805,6.029,CST-1368DR,5485,7647,14969,0.169,550
2021-06-14T13:40:22,42.805,6.029,CST-1368DR,5485,7646,14966,0.170,551
2021-06-14T13:43:24,42.805,6.029,CST-1368DR,5485,7648,14972,0.168,551
2021-06-14T13:46:25,42.805,6.029,CST-1368DR,5485,7648,14972,0.168,551
2021-06-14T13:49:27,42.805,6.029,CST-1368DR,5485,7648,14972,0.168,551
2021-06-14T13:52:28,42.805,6.029,CST-1368DR,5485,7649,14973,0.168,551
2021-06-14T13:55:30,42.805,6.029,CST-1368DR,5485,7647,14969,0.169,551
2021-06-14T13:58:31,42.805,6.029,CST-1368DR,5485,7648,14970,0.169,551
2021-06-14T14:01:33,42.805,6.029,CST-1368DR,5485,7646,14967,0.170,551
2021-06-14T14:04:35,42.805,6.029,CST-1368DR,5485,7647,14970,0.169,551
2021-06-14T14:07:36,42.805,6.029,CST-1368DR,5485,7645,14966,0.170,551
2021-06-14T14:10:38,42.805,6.029,CST-1368DR,5485,7645,14966,0.170,551
2021-06-14T14:13:39,42.805,6.029,CST-1368DR,5485,7648,14970,0.169,551
2021-06-14T14:16:41,42.805,6.029,CST-1368DR,5485,7648,14970,0.169,551
2021-06-14T14:19:43,42.805,6.029,CST-1368DR,5485,7646,14968,0.170,551
2021-06-14T14:22:44,42.805,6.029,CST-1368DR,5485,7647,14969,0.169,551
2021-06-14T14:25:46,42.805,6.029,CST-1368DR,5485,7647,14970,0.169,551
2021-06-14T14:28:47,42.805,6.029,CST-1368DR,5485,7647,14970,0.169,551
2021-06-14T14:31:49,42.805,6.029,CST-1368DR,5485,7646,14968,0.170,551
2021-06-14T14:34:50,42.805,6.029,CST-1368DR,5485,7647,14968,0.170,551
2021-06-14T14:37:52,42.805,6.029,CST-1368DR,5485,7646,14968,0.170,551
2021-06-14T14:40:54,42.805,6.029,CST-1368DR,5485,7646,14967,0.170,551
2021-06-14T14:43:55,42.805,6.029,CST-1368DR,5485,7646,14968,0.170,551
2021-06-14T14:46:57,42.805,6.029,CST-1368DR,5485,7644,14963,0.171,551
2021-06-14T14:49:58,42.805,6.029,CST-1368DR,5485,7643,14960,0.172,551
2021-06-14T14:53:00,42.805,6.029,CST-1368DR,5485,7647,14969,0.169,551
2021-06-14T14:56:02,42.805,6.029,CST-1368DR,5485,7644,14962,0.171,551
2021-06-14T14:59:03,42.805,6.029,CST-1368DR,5485,7647,14969,0.169,551
2021-06-14T15:02:05,42.805,6.029,CST-1368DR,5485,7646,14968,0.170,551
2021-06-14T15:05:06,42.805,6.029,CST-1368DR,5485,7648,14970,0.169,551
2021-06-14T15:08:08,42.805,6.029,CST-1368DR,5485,7646,14968,0.170,551
2021-06-14T15:11:09,42.805,6.029,CST-1368DR,5485,7647,14968,0.170,551
2021-06-14T15:14:11,42.805,6.029,CST-1368DR,5485,7647,14969,0.169,551
2021-06-14T15:17:13,42.805,6.029,CST-1368DR,5485,7647,14968,0.170,551
2021-06-14T15:20:14,42.805,6.029,CST-1368DR,5485,7646,14968,0.170,551
2021-06-14T15:23:16,42.805,6.029,CST-1368DR,5485,7645,14965,0.170,551
2021-06-14T15:26:17,42.805,6.029,CST-1368DR,5485,7645,14964,0.171,551
2021-06-14T15:29:19,42.805,6.029,CST-1368DR,5485,7647,14968,0.170,551
2021-06-14T15:32:20,42.805,6.029,CST-1368DR,5485,7646,14966,0.170,551
2021-06-14T15:35:22,42.805,6.029,CST-1368DR,5485,7645,14965,0.170,551
2021-06-14T15:38:24,42.805,6.029,CST-1368DR,5485,7646,14968,0.170,551
2021-06-14T15:41:25,42.805,6.029,CST-1368DR,5485,7647,14968,0.170,551
2021-06-14T15:44:27,42.805,6.029,CST-1368DR,5484,7645,14968,0.170,551
2021-06-14T15:47:28,42.805,6.029,CST-1368DR,5484,7645,14968,0.170,551
2021-06-14T15:50:30,42.805,6.029,CST-1368DR,5485,7647,14969,0.169,551
2021-06-14T15:53:32,42.805,6.029,CST-1368DR,5484,7646,14969,0.169,551
2021-06-14T15:56:33,42.805,6.029,CST-1368DR,5484,7646,14970,0.169,551
2021-06-14T15:59:35,42.805,6.029,CST-1368DR,5484,7645,14968,0.170,551
2021-06-14T16:02:36,42.805,6.029,CST-1368DR,5484,7646,14969,0.169,551
2021-06-14T16:05:38,42.805,6.029,CST-1368DR,5484,7646,14970,0.169,551
2021-06-14T16:08:39,42.805,6.029,CST-1368DR,5484,7642,14962,0.171,551
2021-06-14T16:11:41,42.805,6.029,CST-1368DR,5484,7644,14966,0.170,550
2021-06-14T16:14:43,42.805,6.029,CST-1368DR,5484,7645,14968,0.170,551
2021-06-14T16:17:44,42.805,6.029,CST-1368DR,5484,7646,14969,0.169,551
2021-06-14T16:20:46,42.805,6.029,CST-1368DR,5484,7647,14971,0.169,551
2021-06-14T16:23:47,42.805,6.029,CST-1368DR,5484,7647,14971,0.169,551
2021-06-14T16:26:49,42.805,6.029,CST-1368DR,5484,7646,14970,0.169,551
2021-06-14T16:29:50,42.805,6.029,CST-1368DR,5484,7645,14968,0.170,551
2021-06-14T16:32:52,42.805,6.029,CST-1368DR,5484,7645,14967,0.170,551
2021-06-14T16:35:54,42.805,6.029,CST-1368DR,5484,7647,14971,0.169,551
2021-06-14T16:38:55,42.805,6.029,CST-1368DR,5484,7646,14970,0.169,551
2021-06-14T16:41:57,42.805,6.029,CST-1368DR,5484,7633,14943,0.176,551
2021-06-14T16:44:58,42.805,6.029,CST-1368DR,5484,7647,14971,0.169,551
2021-06-14T16:48:00,42.805,6.029,CST-1368DR,5484,7647,14971,0.169,551
2021-06-14T16:51:02,42.805,6.029,CST-1368DR,5484,7647,14971,0.169,551